Find Starlink 32027

NORAD ID: 60143 Int'l Des: 2024-120 Owner: SPXS Country: US Constellation: starlink operational
LEOCIRCULAR

Live Position

Loading 3D Globe...

About Starlink 32027

Description loading...

Upcoming Passes

Passes for default location (London). Set your location on the main map for personalized predictions.

Altitude History

Loading altitude history...

Two-Line Element Set

1 60143U 24120J 26126.51445920 -.00000034 00000-0 10988-4 0 9998
2 60143 53.1615 50.9937 0001215 72.5631 287.5502 15.30172405105310
Epoch: May 6, 2026 • Age: 12 hours

Current Status

Altitude 489.1 km
Velocity 7.62 km/s
Sub-Earth Point -40.38°S, 134.62°E
Launch Date Jun 27, 2024
Age 1.8 years
Type internet

Technical Details

Classification Payload
Mass 730.00 kg
Dry Mass 700.00 kg
Total Mass 730.00 kg
Length 0.30 m
Diameter 4.10 m
Span 29.00 m
Shape Box + pan
Manufacturer SPXS
Bus Type Starlink V2M
Phase Status In Orbit
Owner/State SPXS/US

Most Searched